• In Netherlands
  • List of Countries
  • For 7 days
  • Water Temperature
  • Satellite Maps
  • Weather Map
  • Weather Widgets
  • user-avatar
    Login

    Hourly Weather Wavre

    Today, 28 June, Wednesday

    Time Temperature Precipitation Wind Pressure Humidity
    00:00 +18°C° 0.2 mm 2 mps 743 mmHg 95%
    01:00 +18°C° 0 mm 3 mps 743 mmHg 96%
    02:00 +18°C° 0 mm 3 mps 742 mmHg 96%
    03:00 +18°C° 0 mm 3 mps 742 mmHg 96%
    04:00 +18°C° 0.1 mm 4 mps 742 mmHg 95%
    05:00 +18°C° 0.1 mm 4 mps 742 mmHg 94%
    06:00 +19°C° 0.1 mm 5 mps 742 mmHg 94%
    07:00 +19°C° 0.2 mm 5 mps 742 mmHg 92%
    08:00 +19°C° 0.2 mm 5 mps 742 mmHg 91%
    09:00 +19°C° 0.2 mm 6 mps 742 mmHg 90%
    10:00 +19°C° 0.1 mm 5 mps 742 mmHg 87%
    11:00 +19°C° 0.1 mm 5 mps 743 mmHg 85%
    12:00 +20°C° 0.1 mm 5 mps 743 mmHg 82%
    13:00 +20°C° 0.1 mm 5 mps 742 mmHg 79%
    14:00 +21°C° 0.1 mm 4 mps 742 mmHg 76%
    15:00 +22°C° 0.1 mm 4 mps 742 mmHg 73%
    16:00 +22°C° 0.1 mm 3 mps 742 mmHg 75%
    17:00 +21°C° 0.1 mm 3 mps 742 mmHg 78%
    18:00 +21°C° 0.1 mm 2 mps 741 mmHg 80%
    19:00 +20°C° 0 mm 2 mps 741 mmHg 84%
    20:00 +19°C° 0 mm 2 mps 741 mmHg 87%
    21:00 +18°C° 0 mm 2 mps 742 mmHg 90%
    22:00 +18°C° 0.1 mm 2 mps 741 mmHg 92%
    23:00 +17°C° 0.1 mm 2 mps 741 mmHg 94%

    Tomorrow, 29 June, Thursday

    Time Temperature Precipitation Wind Pressure Humidity
    00:00 +17°C° 0.1 mm 2 mps 741 mmHg 95%
    01:00 +16°C° 0.1 mm 2 mps 741 mmHg 96%
    02:00 +16°C° 0.1 mm 2 mps 741 mmHg 97%
    03:00 +16°C° 0.1 mm 3 mps 740 mmHg 97%
    04:00 +16°C° 0 mm 3 mps 741 mmHg 96%
    05:00 +17°C° 0 mm 3 mps 741 mmHg 94%
    06:00 +17°C° 0 mm 3 mps 741 mmHg 93%
    07:00 +18°C° 0.1 mm 3 mps 741 mmHg 89%
    08:00 +19°C° 0.1 mm 3 mps 741 mmHg 85%
    09:00 +19°C° 0.1 mm 4 mps 741 mmHg 81%
    10:00 +20°C° 0.2 mm 4 mps 741 mmHg 80%
    11:00 +20°C° 0.2 mm 4 mps 742 mmHg 78%
    12:00 +20°C° 0.2 mm 4 mps 742 mmHg 77%
    13:00 +20°C° 0.5 mm 4 mps 742 mmHg 78%
    14:00 +20°C° 0.5 mm 4 mps 742 mmHg 79%
    15:00 +20°C° 0.5 mm 4 mps 742 mmHg 79%
    16:00 +19°C° 0.3 mm 4 mps 743 mmHg 81%
    17:00 +19°C° 0.3 mm 3 mps 743 mmHg 82%
    18:00 +18°C° 0.3 mm 3 mps 743 mmHg 83%
    19:00 +17°C° 0.1 mm 3 mps 743 mmHg 86%
    20:00 +16°C° 0.1 mm 3 mps 744 mmHg 90%
    21:00 +16°C° 0.1 mm 2 mps 744 mmHg 93%
    22:00 +14°C° 0 mm 3 mps 744 mmHg 94%
    23:00 +14°C° 0 mm 3 mps 744 mmHg 94%

    Day after tomorrow, 30 June, Friday

    Time Temperature Precipitation Wind Pressure Humidity
    00:00 +13°C° 0 mm 3 mps 744 mmHg 95%
    01:00 +13°C° 0 mm 3 mps 744 mmHg 95%
    02:00 +12°C° 0 mm 3 mps 744 mmHg 96%
    03:00 +12°C° 0 mm 3 mps 744 mmHg 96%
    04:00 +13°C° 0 mm 4 mps 745 mmHg 95%
    05:00 +13°C° 0 mm 4 mps 745 mmHg 93%
    06:00 +14°C° 0 mm 5 mps 745 mmHg 91%
    07:00 +15°C° 0.1 mm 5 mps 745 mmHg 88%
    08:00 +16°C° 0.1 mm 5 mps 746 mmHg 85%
    09:00 +17°C° 0.1 mm 6 mps 746 mmHg 81%
    10:00 +17°C° 0.3 mm 6 mps 746 mmHg 79%
    11:00 +19°C° 0.3 mm 6 mps 747 mmHg 77%
    12:00 +20°C° 0.3 mm 7 mps 747 mmHg 75%
    13:00 +20°C° 0.4 mm 6 mps 747 mmHg 74%
    14:00 +20°C° 0.4 mm 6 mps 747 mmHg 73%
    15:00 +20°C° 0.4 mm 6 mps 747 mmHg 72%
    16:00 +20°C° 0.4 mm 5 mps 747 mmHg 75%
    17:00 +20°C° 0.4 mm 4 mps 747 mmHg 78%
    18:00 +19°C° 0.4 mm 3 mps 748 mmHg 81%
    19:00 +18°C° 0.1 mm 3 mps 748 mmHg 85%
    20:00 +16°C° 0.1 mm 3 mps 748 mmHg 89%
    21:00 +14°C° 0.1 mm 3 mps 749 mmHg 93%
    22:00 +14°C° 0 mm 3 mps 749 mmHg 93%
    23:00 +13°C° 0 mm 3 mps 749 mmHg 94%

    1 July, Saturday

    Time Temperature Precipitation Wind Pressure Humidity
    00:00 +13°C° 0 mm 3 mps 749 mmHg 94%
    01:00 +12°C° 0 mm 3 mps 749 mmHg 95%
    02:00 +12°C° 0 mm 3 mps 749 mmHg 95%
    03:00 +12°C° 0 mm 3 mps 749 mmHg 95%
    04:00 +12°C° 0 mm 3 mps 750 mmHg 94%
    05:00 +13°C° 0 mm 3 mps 750 mmHg 93%
    06:00 +14°C° 0 mm 3 mps 750 mmHg 91%
    07:00 +14°C° 0.2 mm 3 mps 751 mmHg 91%
    08:00 +15°C° 0.2 mm 4 mps 751 mmHg 90%
    09:00 +15°C° 0.2 mm 4 mps 752 mmHg 90%
    10:00 +15°C° 0.9 mm 4 mps 752 mmHg 90%
    11:00 +14°C° 0.9 mm 5 mps 752 mmHg 91%
    12:00 +14°C° 0.9 mm 5 mps 753 mmHg 91%
    13:00 +15°C° 0.6 mm 5 mps 753 mmHg 88%
    14:00 +15°C° 0.6 mm 5 mps 754 mmHg 86%
    15:00 +15°C° 0.6 mm 5 mps 754 mmHg 83%
    16:00 +17°C° 0.1 mm 4 mps 754 mmHg 82%
    17:00 +17°C° 0.1 mm 4 mps 754 mmHg 81%
    18:00 +17°C° 0.1 mm 3 mps 755 mmHg 80%
    19:00 +16°C° 0 mm 3 mps 755 mmHg 84%
    20:00 +14°C° 0 mm 3 mps 756 mmHg 88%
    21:00 +14°C° 0 mm 2 mps 756 mmHg 92%
    22:00 +13°C° 0 mm 3 mps 756 mmHg 94%
    23:00 +12°C° 0 mm 3 mps 756 mmHg 95%

    2 July, Sunday

    Time Temperature Precipitation Wind Pressure Humidity
    00:00 +12°C° 0 mm 3 mps 756 mmHg 96%
    01:00 +12°C° 0 mm 3 mps 756 mmHg 96%
    02:00 +12°C° 0 mm 4 mps 756 mmHg 96%
    03:00 +11°C° 0 mm 4 mps 756 mmHg 96%
    04:00 +12°C° 0 mm 4 mps 756 mmHg 95%
    05:00 +13°C° 0 mm 5 mps 756 mmHg 93%
    06:00 +14°C° 0 mm 5 mps 756 mmHg 92%
    07:00 +15°C° 0.1 mm 6 mps 756 mmHg 90%
    08:00 +15°C° 0.1 mm 6 mps 756 mmHg 89%
    09:00 +16°C° 0.1 mm 6 mps 756 mmHg 88%
    10:00 +16°C° 0.5 mm 6 mps 756 mmHg 90%
    11:00 +16°C° 0.5 mm 6 mps 756 mmHg 92%
    12:00 +16°C° 0.5 mm 6 mps 756 mmHg 94%
    13:00 +16°C° 0.3 mm 5 mps 756 mmHg 93%
    14:00 +17°C° 0.3 mm 5 mps 756 mmHg 91%
    15:00 +17°C° 0.3 mm 5 mps 756 mmHg 90%
    16:00 +17°C° 0.3 mm 5 mps 757 mmHg 90%
    17:00 +17°C° 0.3 mm 5 mps 757 mmHg 90%
    18:00 +18°C° 0.3 mm 4 mps 757 mmHg 90%
    19:00 +17°C° 0.2 mm 4 mps 757 mmHg 92%
    20:00 +16°C° 0.2 mm 3 mps 758 mmHg 93%
    21:00 +15°C° 0.2 mm 2 mps 758 mmHg 95%
    22:00 +15°C° 0 mm 2 mps 758 mmHg 95%
    23:00 +14°C° 0 mm 2 mps 758 mmHg 95%

    3 July, Monday

    Time Temperature Precipitation Wind Pressure Humidity
    00:00 +14°C° 0 mm 2 mps 758 mmHg 95%
    01:00 +13°C° 0.1 mm 3 mps 758 mmHg 94%
    02:00 +13°C° 0.1 mm 3 mps 758 mmHg 93%
    03:00 +13°C° 0.1 mm 3 mps 758 mmHg 93%
    04:00 +13°C° 0 mm 3 mps 758 mmHg 90%
    05:00 +13°C° 0 mm 4 mps 759 mmHg 87%
    06:00 +13°C° 0 mm 4 mps 759 mmHg 84%
    07:00 +14°C° 0 mm 5 mps 759 mmHg 79%
    08:00 +15°C° 0 mm 5 mps 759 mmHg 73%
    09:00 +15°C° 0 mm 5 mps 759 mmHg 68%
    10:00 +16°C° 0 mm 5 mps 759 mmHg 66%
    11:00 +16°C° 0 mm 5 mps 759 mmHg 64%
    12:00 +17°C° 0 mm 5 mps 759 mmHg 63%
    13:00 +17°C° 0 mm 5 mps 759 mmHg 62%
    14:00 +17°C° 0 mm 5 mps 759 mmHg 62%
    15:00 +19°C° 0 mm 5 mps 759 mmHg 61%
    16:00 +17°C° 0 mm 5 mps 759 mmHg 64%
    17:00 +17°C° 0 mm 4 mps 759 mmHg 68%
    18:00 +17°C° 0 mm 4 mps 759 mmHg 71%
    19:00 +14°C° 0 mm 3 mps 760 mmHg 76%
    20:00 +12°C° 0 mm 3 mps 760 mmHg 82%
    21:00 +10°C° 0 mm 2 mps 760 mmHg 88%
    22:00 +10°C° 0 mm 2 mps 760 mmHg 89%
    23:00 +9°C° 0 mm 2 mps 760 mmHg 90%
    Show more